FW9948 Weather Reports


Display with metric or nautical units.
time (UTC)temp
F
wind
direction
speed
MPH
gust
MPH
rain 1hr
in
rain 24hr
in
rain mn
in
humidity
%
barometer
mb
20260504175510 89 196 6.0 11.0 0.00 0.00 0.00 78 1015.5
20260504175013 89 114 7.0 13.0 0.00 0.00 0.00 76 1015.5
20260504174530 90 148 7.0 16.0 0.00 0.00 0.00 76 1015.7
20260504174012 90 134 5.0 16.0 0.00 0.00 0.00 76 1015.7
20260504173513 90 165 6.0 12.0 0.00 0.00 0.00 76 1015.7
20260504173036 90 105 5.0 12.0 0.00 0.00 0.00 76 1015.7
20260504172510 90 178 5.0 12.0 0.00 0.00 0.00 76 1015.7
20260504172011 89 94 4.0 13.0 0.00 0.00 0.00 77 1015.7
20260504171532 89 142 8.0 14.0 0.00 0.00 0.00 76 1015.7
20260504171009 90 122 7.0 14.0 0.00 0.00 0.00 77 1015.6
20260504170519 89 185 6.0 13.0 0.00 0.00 0.00 76 1015.6
20260504151016 87 195 5.0 11.0 0.00 0.00 0.00 80 1015.9
20260504150511 87 162 6.0 10.0 0.00 0.00 0.00 79 1016.0
20260504141014 85 173 6.0 11.0 0.00 0.00 0.00 82 1015.5
20260504140509 85 174 4.0 9.0 0.00 0.00 0.00 83 1015.5
20260504130510 83 160 1.0 8.0 0.00 0.00 0.00 85 1015.2
20260504110510 77 0 0.0 1.0 0.00 0.00 0.00 93 1014.4
20260504100509 78 0 0.0 0.0 0.00 0.00 0.00 91 1014.3
20260504081533 80 0 0.0 4.0 0.00 0.00 0.00 88 1014.0
20260504081011 80 128 1.0 4.0 0.00 0.00 0.00 88 1014.0
20260504080510 80 86 1.0 5.0 0.00 0.00 0.00 88 1013.9
20260504050510 82 135 4.0 11.0 0.00 0.00 0.00 85 1015.9
20260504045509 82 136 4.0 11.0 0.00 0.00 0.00 86 1015.9
20260504045016 82 111 6.0 11.0 0.00 0.00 0.00 86 1016.1
20260504044539 82 173 4.0 14.0 0.00 0.00 0.00 86 1016.0
20260504044012 82 157 6.0 14.0 0.00 0.00 0.00 86 1015.9
20260504043512 82 155 6.0 15.0 0.00 0.00 0.00 86 1016.1
20260504043034 82 143 5.0 15.0 0.00 0.00 0.00 85 1016.0
20260504042510 82 120 6.0 13.0 0.00 0.00 0.00 86 1016.0
20260504042009 82 144 5.0 13.0 0.00 0.00 0.00 85 1016.2
20260504041530 82 91 5.0 13.0 0.00 0.00 0.00 85 1016.2
20260504041009 82 123 7.0 13.0 0.00 0.00 0.00 85 1016.3
20260504040515 82 132 5.0 12.0 0.00 0.00 0.00 86 1016.3
20260504040032 82 146 6.0 12.0 0.00 0.00 0.00 86 1016.3
20260504035516 82 121 6.0 12.0 0.00 0.00 0.00 85 1016.5
20260504035011 82 137 5.0 10.0 0.00 0.00 0.00 85 1016.4
20260504034539 82 154 5.0 10.0 0.00 0.00 0.00 85 1016.5
20260504034010 82 155 4.0 11.0 0.00 0.00 0.00 86 1016.6
20260504033515 82 144 5.0 11.0 0.00 0.00 0.00 85 1016.7
20260504033041 82 140 4.0 10.0 0.00 0.00 0.00 85 1016.6
20260504032511 82 115 4.0 9.0 0.00 0.00 0.00 85 1016.6
20260504032012 82 135 4.0 9.0 0.00 0.00 0.00 85 1016.6
20260504031534 82 169 4.0 9.0 0.00 0.00 0.00 85 1016.6
20260504031011 82 130 4.0 10.0 0.00 0.00 0.00 85 1016.7
20260504030510 82 140 5.0 10.0 0.00 0.00 0.00 85 1016.6
20260504030029 82 116 4.0 10.0 0.00 0.00 0.00 85 1016.6
20260504025511 82 163 5.0 10.0 0.00 0.00 0.00 85 1016.6
20260504025010 82 123 4.0 9.0 0.00 0.00 0.00 85 1016.7
20260504024528 82 22 3.0 9.0 0.00 0.00 0.00 85 1016.7
20260504024012 82 101 3.0 11.0 0.00 0.00 0.00 85 1016.7
20260504023513 82 171 4.0 11.0 0.00 0.00 0.00 85 1016.6
20260504023028 82 115 3.0 9.0 0.00 0.00 0.00 85 1016.5
20260504022513 82 103 3.0 8.0 0.00 0.00 0.00 85 1016.5
20260504022011 82 126 4.0 10.0 0.00 0.00 0.00 85 1016.5
20260504021535 82 103 3.0 10.0 0.00 0.00 0.00 85 1016.5
20260504021009 82 117 3.0 10.0 0.00 0.00 0.00 85 1016.4
20260504020511 82 111 3.0 10.0 0.00 0.00 0.00 84 1016.2
20260504020031 82 101 4.0 10.0 0.00 0.00 0.00 84 1016.1
20260504015508 82 129 5.0 11.0 0.00 0.00 0.00 84 1016.1
20260504015011 82 117 5.0 11.0 0.00 0.00 0.00 84 1016.1
20260504014529 82 118 4.0 10.0 0.00 0.00 0.00 85 1015.9
20260504014011 82 132 5.0 12.0 0.00 0.00 0.00 85 1015.8
20260504013512 82 150 5.0 14.0 0.00 0.00 0.00 84 1015.6
20260504013035 82 132 6.0 14.0 0.00 0.00 0.00 84 1015.4
20260504012510 82 130 7.0 13.0 0.00 0.00 0.00 84 1015.3
20260504012011 83 121 7.0 16.0 0.00 0.00 0.00 85 1015.3
20260504011531 83 121 6.0 16.0 0.00 0.00 0.00 84 1015.3
20260504011011 83 136 5.0 14.0 0.00 0.00 0.00 84 1015.2
20260504010508 83 115 7.0 14.0 0.00 0.00 0.00 84 1015.2
20260504010036 83 117 7.0 14.0 0.00 0.00 0.00 84 1015.1
20260504005509 83 128 7.0 13.0 0.00 0.00 0.00 84 1015.1
20260504005010 83 131 7.0 13.0 0.00 0.00 0.00 84 1015.1
20260504004530 83 136 7.0 14.0 0.00 0.00 0.00 84 1015.1
20260504004010 83 117 7.0 14.0 0.00 0.00 0.00 84 1014.9
20260504003509 83 145 6.0 12.0 0.00 0.00 0.00 85 1015.0
20260504003030 83 98 5.0 11.0 0.00 0.00 0.00 85 1014.9
20260504002509 83 135 4.0 10.0 0.00 0.00 0.00 85 1014.9
20260504002009 83 150 4.0 11.0 0.00 0.00 0.00 85 1014.9
20260504001529 83 128 5.0 11.0 0.00 0.00 0.00 85 1014.9
20260504001010 83 129 4.0 11.0 0.00 0.00 0.00 85 1014.7
20260504000509 83 113 5.0 11.0 0.00 0.00 0.00 85 1014.6
20260504000030 83 133 6.0 11.0 0.00 0.00 0.00 84 1014.7
20260503235510 83 165 5.0 15.0 0.00 0.00 0.00 84 1014.6
20260503235011 83 132 7.0 15.0 0.00 0.00 0.00 84 1014.5
20260503234528 83 135 7.0 15.0 0.00 0.00 0.00 84 1014.5
20260503234018 84 103 5.0 15.0 0.00 0.00 0.00 84 1014.2
20260503233513 84 112 8.0 15.0 0.00 0.00 0.00 83 1014.2
20260503233030 84 123 8.0 13.0 0.00 0.00 0.00 83 1014.1
20260503232511 84 144 6.0 13.0 0.00 0.00 0.00 83 1014.3
20260503232016 84 130 7.0 14.0 0.00 0.00 0.00 83 1014.3
20260503231530 85 127 9.0 14.0 0.00 0.00 0.00 83 1014.2
20260503231012 84 145 7.0 13.0 0.00 0.00 0.00 83 1014.2
20260503230511 84 136 5.0 13.0 0.00 0.00 0.00 83 1014.2
20260503230032 84 134 5.0 13.0 0.00 0.00 0.00 83 1014.3
20260503225509 84 168 5.0 13.0 0.00 0.00 0.00 83 1014.2
20260503225009 85 84 8.0 12.0 0.00 0.00 0.00 83 1014.2
20260503224530 85 130 5.0 13.0 0.00 0.00 0.00 83 1014.2
20260503224016 85 118 8.0 13.0 0.00 0.00 0.00 82 1014.2
20260503223511 85 124 7.0 13.0 0.00 0.00 0.00 82 1014.2
20260503223031 86 113 5.0 12.0 0.00 0.00 0.00 82 1014.2
20260503222511 86 162 6.0 15.0 0.00 0.00 0.00 81 1014.2
20260503222008 87 126 7.0 15.0 0.00 0.00 0.00 81 1014.2
20260503221533 87 120 6.0 14.0 0.00 0.00 0.00 81 1014.2
20260503221011 87 96 8.0 14.0 0.00 0.00 0.00 81 1014.3
20260503220509 87 132 8.0 15.0 0.00 0.00 0.00 80 1014.2
20260503220030 87 118 8.0 15.0 0.00 0.00 0.00 80 1014.2
20260503215510 88 138 6.0 11.0 0.00 0.00 0.00 80 1014.3
20260503215011 88 120 5.0 13.0 0.00 0.00 0.00 80 1014.4
20260503214528 88 155 6.0 13.0 0.00 0.00 0.00 79 1014.5
20260503214017 88 46 6.0 13.0 0.00 0.00 0.00 79 1014.4
20260503213510 88 123 7.0 13.0 0.00 0.00 0.00 80 1014.3
20260503213035 88 84 4.0 11.0 0.00 0.00 0.00 79 1014.3
20260503212513 88 86 7.0 11.0 0.00 0.00 0.00 78 1014.4
20260503212009 89 155 4.0 11.0 0.00 0.00 0.00 78 1014.4
20260503211529 90 147 3.0 10.0 0.00 0.00 0.00 77 1014.4
20260503211014 90 86 4.0 14.0 0.00 0.00 0.00 77 1014.4
20260503210509 90 188 5.0 14.0 0.00 0.00 0.00 77 1014.4
20260503210028 90 116 7.0 13.0 0.00 0.00 0.00 77 1014.4
20260503205509 91 114 6.0 12.0 0.00 0.00 0.00 76 1014.4
20260503205017 90 154 4.0 12.0 0.00 0.00 0.00 76 1014.4
20260503204528 90 121 5.0 12.0 0.00 0.00 0.00 76 1014.4
20260503204008 90 143 7.0 12.0 0.00 0.00 0.00 76 1014.5
20260503203509 90 225 5.0 11.0 0.00 0.00 0.00 77 1014.5
20260503203034 89 157 5.0 12.0 0.00 0.00 0.00 77 1014.5
20260503202509 90 71 5.0 12.0 0.00 0.00 0.00 76 1014.6
20260503202013 90 165 6.0 12.0 0.00 0.00 0.00 76 1014.7
20260503201531 90 159 5.0 11.0 0.00 0.00 0.00 76 1014.7
20260503201011 90 153 5.0 11.0 0.00 0.00 0.00 76 1014.9
20260503200510 90 119 5.0 13.0 0.00 0.00 0.00 77 1014.9
20260503200033 89 168 5.0 13.0 0.00 0.00 0.00 77 1014.8
20260503195512 89 149 6.0 13.0 0.00 0.00 0.00 77 1014.9
20260503195012 90 182 6.0 13.0 0.00 0.00 0.00 76 1015.0
20260503194531 90 160 6.0 13.0 0.00 0.00 0.00 75 1015.0
20260503194011 90 125 7.0 12.0 0.00 0.00 0.00 76 1014.9
20260503193513 90 144 4.0 12.0 0.00 0.00 0.00 76 1015.0
20260503193033 90 167 5.0 14.0 0.00 0.00 0.00 76 1015.1
20260503192509 90 156 4.0 14.0 0.00 0.00 0.00 75 1015.1
20260503192017 91 134 6.0 14.0 0.00 0.00 0.00 75 1015.1
20260503191532 91 158 6.0 15.0 0.00 0.00 0.00 74 1015.0
20260503191010 91 179 5.0 15.0 0.00 0.00 0.00 75 1015.2
20260503190511 92 174 5.0 15.0 0.00 0.00 0.00 73 1015.1
20260503190028 92 142 7.0 15.0 0.00 0.00 0.00 73 1015.1
20260503185510 92 117 7.0 13.0 0.00 0.00 0.00 74 1015.2
20260503185013 92 132 5.0 14.0 0.00 0.00 0.00 74 1015.2
20260503184530 91 113 6.0 15.0 0.00 0.00 0.00 74 1015.2
20260503184010 92 130 7.0 15.0 0.00 0.00 0.00 74 1015.4
20260503183515 91 120 7.0 15.0 0.00 0.00 0.00 74 1015.4
20260503183035 91 178 5.0 15.0 0.00 0.00 0.00 74 1015.5
20260503182510 91 138 5.0 15.0 0.00 0.00 0.00 74 1015.5
20260503182011 91 77 7.0 14.0 0.00 0.00 0.00 76 1015.7
20260503181601 91 163 7.0 14.0 0.00 0.00 0.00 76 1015.6
20260503181011 91 102 7.0 13.0 0.00 0.00 0.00 76 1015.7
20260503180510 90 156 6.0 13.0 0.00 0.00 0.00 75 1015.8
20260503180030 91 138 8.0 14.0 0.00 0.00 0.00 76 1015.8